FW6291 Weather Reports


time (UTC)temp
F
wind
direction
speed
knots
gust
knots
rain 1hr
in
rain 24hr
in
rain mn
in
humidity
%
barometer
mb
20260502205514 77 90 0.0 1.7 0.00 0.00 0.00 57 1011.9
20260502204513 77 105 0.0 3.5 0.00 0.00 0.00 58 1012.0
20260502203512 76 286 0.0 1.7 0.00 0.00 0.00 60 1012.1
20260502202511 76 30 0.0 1.7 0.00 0.00 0.00 59 1012.2
20260502201510 76 119 0.0 3.5 0.00 0.00 0.00 59 1012.5
20260502200509 77 135 0.0 2.6 0.00 0.00 0.00 59 1012.4
20260502195508 76 153 0.0 0.9 0.00 0.00 0.00 60 1012.6
20260502194507 75 82 0.9 0.9 0.00 0.00 0.00 61 1012.7
20260502193506 75 110 0.0 0.0 0.00 0.00 0.00 61 1012.8
20260502192505 74 75 0.0 0.0 0.00 0.00 0.00 64 1013.0
20260502191504 74 122 0.0 0.0 0.00 0.00 0.00 62 1013.3
20260502190503 73 322 0.0 0.0 0.00 0.00 0.00 62 1013.4
20260502185502 73 167 0.0 0.0 0.00 0.00 0.00 64 1013.6
20260502183500 72 229 0.0 0.0 0.00 0.00 0.00 67 1013.5
20260502182459 71 158 0.0 0.0 0.00 0.00 0.00 68 1013.7
20260502181457 70 161 0.0 0.0 0.00 0.00 0.00 71 1013.7
20260502180457 69 226 0.0 0.0 0.00 0.00 0.00 72 1014.0
20260502170451 62 257 0.0 0.0 0.00 0.00 0.00 84 1014.8
20260502163447 60 120 0.0 0.9 0.00 0.00 0.00 87 1014.8
20260502161446 60 105 0.0 0.9 0.00 0.00 0.00 87 1014.9
20260502160444 60 79 0.0 1.7 0.00 0.00 0.00 88 1014.6
20260502150438 58 117 0.0 0.0 0.00 0.00 0.00 92 1014.2
20260502130426 53 101 0.0 0.0 0.00 0.00 0.00 91 1013.6
20260502123423 53 101 0.0 0.0 0.00 0.00 0.00 91 1013.5
20260502122422 53 101 0.0 0.0 0.00 0.00 0.00 91 1013.3
20260502121421 53 101 0.0 0.0 0.00 0.00 0.00 91 1013.3
20260502120420 53 101 0.0 0.0 0.00 0.00 0.00 91 1013.3
20260502115418 53 101 0.0 0.0 0.00 0.00 0.00 91 1013.1
20260502114417 54 98 0.0 0.0 0.00 0.00 0.00 92 1012.9
20260502112415 54 98 0.0 0.0 0.00 0.00 0.00 92 1012.9
20260502111415 54 98 0.0 0.0 0.00 0.00 0.00 92 1012.9
20260502110413 54 98 0.0 0.0 0.00 0.00 0.00 92 1012.8
20260502105412 54 98 0.0 0.0 0.00 0.00 0.00 91 1012.6
20260502104411 55 98 0.0 0.0 0.00 0.00 0.00 91 1012.7
20260502102409 55 98 0.0 0.0 0.00 0.00 0.00 91 1012.7
20260502101408 55 98 0.0 0.0 0.00 0.00 0.00 91 1012.7
20260502100407 55 98 0.0 0.0 0.00 0.00 0.00 91 1012.6
20260502091402 55 98 0.0 0.0 0.00 0.00 0.00 91 1012.9
20260502090401 55 98 0.0 0.0 0.00 0.00 0.00 91 1012.8
20260502071350 56 98 0.0 0.0 0.00 0.00 0.00 89 1013.7
20260502065348 57 98 0.0 0.0 0.00 0.00 0.00 89 1013.6
20260502064347 57 98 0.0 0.0 0.00 0.00 0.00 88 1013.6
20260502063346 58 98 0.0 0.0 0.00 0.00 0.00 88 1013.5
20260502061343 58 98 0.0 0.0 0.00 0.00 0.00 87 1013.5
20260502055342 59 103 0.0 0.0 0.00 0.00 0.00 87 1013.4
20260502054340 59 103 0.0 0.0 0.00 0.00 0.00 86 1013.5
20260502052338 60 101 0.0 0.9 0.00 0.00 0.00 86 1013.5
20260502051337 60 94 0.0 0.9 0.00 0.00 0.00 86 1013.3
20260502050336 60 121 0.0 0.9 0.00 0.00 0.00 85 1013.3
20260502044334 60 98 0.0 1.7 0.00 0.00 0.00 84 1013.2
20260502043333 60 94 0.0 0.9 0.00 0.00 0.00 84 1013.0
20260502042332 61 106 0.0 0.9 0.00 0.00 0.00 84 1013.0
20260502041331 61 89 0.0 0.9 0.00 0.00 0.00 83 1012.8
20260502040330 61 115 0.0 0.9 0.00 0.00 0.00 83 1012.6
20260502035329 61 100 0.0 1.7 0.00 0.00 0.00 82 1012.4
20260502034328 62 97 0.0 0.9 0.00 0.00 0.00 82 1012.2
20260502032326 62 89 0.0 3.5 0.00 0.00 0.00 80 1011.7
20260502030324 64 122 0.0 4.3 0.00 0.00 0.00 77 1011.4
20260502024322 66 92 0.0 3.5 0.00 0.00 0.00 74 1011.3
20260502023321 66 65 0.0 2.6 0.00 0.00 0.00 72 1011.3
20260502022320 67 115 0.0 2.6 0.00 0.00 0.00 71 1011.2
20260502021319 68 109 0.0 3.5 0.00 0.00 0.00 69 1011.1
20260502020318 69 145 1.7 5.2 0.00 0.00 0.00 67 1011.1
20260502014316 71 103 0.0 2.6 0.00 0.00 0.00 65 1011.0
20260502013315 71 86 0.0 2.6 0.00 0.00 0.00 65 1011.0
20260502012314 72 82 0.0 1.7 0.00 0.00 0.00 64 1010.9
20260502011313 72 154 0.0 3.5 0.00 0.00 0.00 64 1011.0
20260502010312 72 112 1.7 4.3 0.00 0.00 0.00 62 1011.0
20260502005311 74 88 0.0 4.3 0.00 0.00 0.00 61 1010.8
20260502004310 74 87 0.0 4.3 0.00 0.00 0.00 61 1010.8
20260502003309 75 88 3.5 3.5 0.00 0.00 0.00 59 1010.8
20260502002308 76 112 0.0 1.7 0.00 0.00 0.00 57 1010.9
20260502001307 77 98 0.0 1.7 0.00 0.00 0.00 57 1011.0
20260502000306 77 204 0.0 0.9 0.00 0.00 0.00 55 1011.0
20260501235306 78 155 0.0 1.7 0.00 0.00 0.00 54 1010.9
20260501234304 79 227 0.0 0.9 0.00 0.00 0.00 53 1010.9
20260501233302 79 140 0.0 0.9 0.00 0.00 0.00 53 1010.8
20260501232305 79 84 0.0 2.6 0.00 0.00 0.00 52 1010.8
20260501230259 80 140 0.0 2.6 0.00 0.00 0.00 51 1010.8
20260501225258 80 82 0.0 0.0 0.00 0.00 0.00 51 1010.9
20260501224257 80 57 0.9 1.7 0.00 0.00 0.00 52 1011.0
20260501223256 80 93 0.0 0.0 0.00 0.00 0.00 51 1011.1
20260501222256 80 86 0.0 3.5 0.00 0.00 0.00 51 1011.2
20260501220254 81 110 0.0 0.9 0.00 0.00 0.00 49 1011.8
20260501215253 81 122 0.0 1.7 0.00 0.00 0.00 49 1011.9
20260501214251 80 202 0.0 2.6 0.00 0.00 0.00 51 1012.0
20260501213251 80 111 0.0 0.9 0.00 0.00 0.00 50 1012.1
20260501212250 80 201 0.0 1.7 0.00 0.00 0.00 51 1012.2
20260501211248 80 250 0.0 0.0 0.00 0.00 0.00 51 1012.3